{"data":{"norad_id":68296,"epoch":"2026-05-25T04:00:03.998880Z","epoch_age_seconds":53791,"freshness":"FRESH","line1":"1 68296U 26057C   26145.16671295  .00013134  00000+0  88894-4 0  9998","line2":"2 68296  97.2837 271.3887 0001511  79.1608 237.2391 15.75161906  5984","mean_motion":15.75161906,"eccentricity":0.0001511,"inclination_deg":97.2837,"raan_deg":271.3887,"arg_perigee_deg":79.1608,"mean_anomaly_deg":237.2391,"bstar":8.8894e-5,"rev_number":598,"period_min":91.419173769684,"perigee_km":343.15475788011,"apogee_km":345.18623920617,"semimajor_km":6722.3074985431,"source":"CELESTRAK","updated_at":"2026-05-25T13:38:21.915703Z"}}